Location: Newark
(43.6583°N, 1.6617°E)
Time: 08:20:56
(UTC+00:00)

Transit 4A - Pass Details

Date: 26 August 2019
Orbit: 867 x 978 km, 66.8° (Epoch: 21 October)

Event Time Altitude Azimuth Distance (km) Brightness Sun altitude
Rises 01:33:21 0° 330° (NNW) 3,636 11.4 -31.4°
Reaches altitude 10° 01:36:00 10° 335° (NNW) 2,672 10.7 -31.1°
Maximum altitude 01:42:08 58° 54° (NE) 1,069 8.3 -30.6°
Enters shadow 01:44:16 38° 113° (ESE) 1,363 8.7 -30.4°
